User: anonymous   Login
Location: Unspecified
(0.0000°N, 0.0000°E)
Time: 00:40:07
(UTC+00:00)
Language:

SWAYAM - Orbit

View from above orbital plane
View from above orbital plane
View from above satellite
View from above satellite

Ground track
Ground track

The orbit data is extracted from the following two-line orbital elements,

1 41607U 16040J   17206.15967860 +.00001194 +00000-0 +57068-4 0  9992
2 41607 097.4580 268.0617 0012913 307.9511 052.0557 15.20899624060371
Epoch (UTC): 25 July 2017 03:49:56
Eccentricity: 0.0012913
inclination: 97.4580°
perigee height: 494 km
apogee height: 512 km
right ascension of ascending node: 268.0617°
argument of perigee: 307.9511°
revolutions per day: 15.20899624
mean anomaly at epoch: 52.0557°
orbit number at epoch: 6037

The dashed part of the orbit path shows where the satellite is in the earth's shadow,  

DLR